Location: Rounton
(54.4000°N, 1.3500°W)
Time: 18:32:55
(UTC+01:00)

S-56A Canister/Altair - Pass Details

Date: 10 September 2024
Orbit: 636 x 2487 km, 38.9° (Epoch: 06 October)

Event Time Altitude Azimuth Distance (km) Brightness Sun altitude
Rises 01:51:10 0° 264° (W) 4,710 11.4 -29.9°
Enters shadow 01:51:57 - 262° (W) 4,530 11.3 -29.9°
Reaches altitude 10° 01:54:34 10° 253° (WSW) 3,993 - -29.8°
Maximum altitude 02:03:15 28° 201° (SSW) 3,339 - -29.4°
Drops below altitude 10° 02:14:04 10° 151° (SSE) 5,023 - -28.9°
Exits shadow 02:16:21 - 146° (SE) 5,526 11.6 -28.8°
Sets 02:19:02 0° 141° (SE) 6,130 11.9 -28.7°
